Location: The Saddle
(36.8333°N, 80.3417°W)
Time: 00:51:23
(UTC-04:00)

SEEDS - Pass Details

Date: 15 March 2026
Orbit: 470 x 477 km, 97.8° (Epoch: 20 April)

Event Time Altitude Azimuth Distance (km) Brightness Sun altitude
Rises 06:37:15 0° 12° (NNE) 2,547 ? -11.8°
Reaches altitude 10° 06:39:19 10° 13° (NNE) 1,662 ? -11.4°
Maximum altitude 06:42:53 84° 100° (E) 486 ? -10.7°
Drops below altitude 10° 06:46:25 10° 191° (S) 1,642 ? -10.0°
Sets 06:48:28 0° 192° (SSW) 2,513 ? -9.6°
